STARLINK-32742, 62605

Orbit data source: Space-Track

STARLINK-32742, 62605 is a payload satellite owned by SpaceX/Seattle (US) in LEO that was launched on Mon, 13 Jan 2025 UTC via an FALCON 9 launch vehicle from the Air Force Eastern Test Range (AFETR). Payloads include a variety of satellites, spacecraft, and rockets equipped with specific instruments for various scientific and technological missions. These include communications satellites like Starlink; space stations such as the ISS; scientific satellites like the Hubble; Earth observation satellites from companies like Planet Labs, Umbra, and HawkEye 360; GPS; miniature CubeSats for education and research; and military/defense satellites.

Loading next visibility...
STARLINK-32742 details
Identifier
62605, 2025-008U
Orbit
LEO
Last TLE update14 hours ago
Origin
Flag of USSpaceX/Seattle (US)
ManufacturerSpaceX/Seattle
MissionOperational spacecraft
Bus & MotorSTARLINK V2M, Unknown motor
Mass730 kg wet, ~700 kg dry
Launch date (UTC)
2025-01-13 (3 weeks ago)
Launch vehicle
FALCON 9
Launch site
Air Force Eastern Test Range (AFETR)
Object type
Payload
Rocket body
Debris
Shape & HBRUnknown
Radar Cross SectionLarge (>1 m²)

Expand to show TLE details & history

TLE from 14 hours ago
0 STARLINK-32742
1 62605U 25008U   25035.58335648 -.00059094  00000-0 -10079-2 0  9999
2 62605  43.0006   9.4461 0001628 267.6590  32.7020 15.50611151  4723
Epoch: 2025-02-04T14:00Z
Definitive object data (Epoch: 2025-02-04T14:00:01.999Z)
Latitude-36.2201°
Longitude-26.90515°
Altitude424.491 km
Speed7.658 km/s
True Right ascension21h 12m 21s
True Declination-36° 02' 54"
Sunlit
Object was in daylight at TLE epoch
Visualization TLE readout
Latitude-22.70844°
Longitude-5.47103°
Altitude419.824 km
Speed7.66 km/s
Apparent Right ascension20h 39m 52s
Apparent Declination-35° 49' 11"
Sunlit
Object is in daylight
Visualization observer readout
Local Sidereal Time06:03:10
Azimuth264.921° W
Elevation-59.053°
Doppler factor1
Orbital elements
Apogee altitude418.011 km
Perigee altitude415.799 km
Semi-major axis6,795.042 km
Eccentricity0.0001628
Inclination43.0006°
RAAN9.4461°
Arg. of periapsis267.659°
True anomaly32.71208°
Mean anomaly32.702°
Eccentric anomaly32.70704°
Mean motion3.87485 °/min
BSTAR-0.0010079
Orbital period92.91 mins
Loading maneuver chart data...
Loading historical data...
Loading historical data...
Loading historical data...
Loading historical data...
Loading historical data...
Loading historical data...
Loading historical data...

STARLINK-32742 Visibility forecast

Observer location: undefined°, undefined

Span
Click to sort rows by Start time (UTC) header in descending order
Start Az.
Max El. time (UTC)
Max El. Az.
Max El.
End time (UTC)
End Az.
5 mins2025-02-05 04:31:24.018Z289.435° WNW2025-02-05 04:34:24.018Z26.701° NE35.2°2025-02-05 04:36:24.018Z73.295° E
5 mins2025-02-05 06:09:24.018Z286.818° WNW2025-02-05 06:11:24.018Z263.855° W44.281°2025-02-05 06:14:24.018Z111.913° ESE
4 mins2025-02-06 02:05:24.018Z247.31° WSW2025-02-06 02:06:24.018Z237.989° WSW43.352°2025-02-06 02:09:24.018Z72.589° E
5 mins2025-02-06 03:42:24.018Z291.47° WNW2025-02-06 03:44:24.018Z4.277° NNE36.376°2025-02-06 03:47:24.018Z73.477° E
|